GW1174 Weather Reports


time (UTC)temp
C
wind
direction
speed
KPH
gust
KPH
rain 1hr
cm
rain 24hr
cm
rain mn
cm
humidity
%
barometer
mb
20260906224017 19 274 3.2 4.8 0.13 0.51 0.13 66 1103.0
20260906223017 19 271 3.2 4.8 0.10 0.51 0.10 65 1102.3
20260906222017 20 267 4.8 4.8 0.08 0.51 0.08 65 1101.7
20260906221017 20 264 4.8 4.8 0.05 0.51 0.05 64 1101.0
20260906220017 20 260 4.8 4.8 0.00 0.51 0.00 63 1100.3
20260906215017 20 257 4.8 4.8 0.00 0.51 0.51 63 1099.6
20260906214017 20 253 4.8 6.4 0.00 0.51 0.51 62 1098.9
20260906213017 11 0.0 0.0 0.00 0.00 0.00 81 1025.4
20260906212017 20 246 4.8 6.4 0.00 0.51 0.51 61 1097.5
20260906211017 11 0.0 0.0 0.00 0.00 0.00 80 1025.4
20260906210017 21 239 4.8 6.4 0.00 0.51 0.51 60 1096.0
20260906205017 21 235 4.8 6.4 0.00 0.51 0.51 59 1095.3
20260906204037 11 0.0 0.0 0.00 0.00 0.00 79 1025.5
20260906203019 11 0.0 0.0 0.00 0.00 0.00 78 1025.6
20260906203016 21 227 6.4 6.4 0.00 0.51 0.51 58 1093.8
20260906202017 11 0.0 0.0 0.00 0.00 0.00 78 1025.5
20260906201017 21 220 6.4 8.0 0.00 0.51 0.51 57 1092.3
20260906200017 21 216 6.4 8.0 0.00 0.51 0.51 56 1091.5
20260906195017 21 212 6.4 8.0 0.00 0.51 0.51 55 1090.8
20260906194018 21 208 6.4 8.0 0.00 0.51 0.51 55 1090.0
20260906193017 20 204 6.4 8.0 0.00 0.51 0.51 54 1089.2
20260906192017 20 201 6.4 8.0 0.00 0.51 0.51 53 1088.4
20260906191017 13 0.0 0.0 0.00 0.00 0.00 71 1025.5
20260906190017 14 0.0 0.0 0.00 0.00 0.00 69 1025.5
20260906185017 20 189 8.0 9.7 0.00 0.51 0.51 51 1086.1
20260906184017 15 0.0 0.0 0.00 0.00 0.00 67 1025.4
20260906183057 19 181 8.0 9.7 0.00 0.51 0.51 50 1084.6
20260906183037 15 0.0 0.0 0.00 0.00 0.00 67 1025.2
20260906182017 19 177 8.0 9.7 0.00 0.51 0.51 49 1083.8
20260906181018 16 0.0 0.0 0.00 0.00 0.00 65 1025.1
20260906180017 18 169 8.0 9.7 0.00 0.51 0.51 48 1082.2
20260906175017 18 165 8.0 11.3 0.00 0.51 0.51 48 1081.5
20260906174017 17 0.0 0.0 0.00 0.00 0.00 58 1025.3
20260906173017 17 157 9.7 11.3 0.00 0.51 0.51 46 1079.9
20260906172017 17 154 9.7 11.3 0.00 0.51 0.51 46 1079.2
20260906171017 17 150 9.7 11.3 0.00 0.51 0.51 45 1078.4
20260906170057 16 146 9.7 11.3 0.00 0.51 0.51 44 1077.6
20260906165017 16 142 9.7 11.3 0.00 0.51 0.51 44 1076.9
20260906164017 16 138 9.7 11.3 0.00 0.51 0.51 43 1076.1
20260906163017 15 134 9.7 12.9 0.00 0.51 0.51 42 1075.4
20260906162017 15 131 9.7 12.9 0.00 0.51 0.51 42 1074.6
20260906161037 15 127 9.7 12.9 0.00 0.51 0.51 41 1073.9
20260906160017 14 123 11.3 12.9 0.00 0.51 0.51 41 1073.1
20260906155017 13 119 11.3 12.9 0.00 0.51 0.51 40 1072.4
20260906154017 13 116 11.3 12.9 0.00 0.51 0.51 39 1071.7
20260906153017 12 112 11.3 12.9 0.00 0.51 0.51 39 1070.9
20260906152017 22 0.0 3.2 0.00 0.00 0.00 36 1026.1
20260906151017 12 105 11.3 14.5 0.00 0.51 0.51 37 1069.5
20260906150017 11 101 11.3 14.5 0.00 0.51 0.51 37 1068.8
20260906145017 11 98 11.3 14.5 0.00 0.51 0.51 36 1068.1
20260906144017 10 94 11.3 14.5 0.00 0.51 0.51 36 1067.4
20260906143017 10 91 11.3 14.5 0.00 0.51 0.51 35 1066.7
20260906142017 9 87 12.9 14.5 0.00 0.51 0.51 35 1066.1
20260906141017 8 84 12.9 14.5 0.00 0.51 0.51 34 1065.4
20260906140017 8 81 12.9 14.5 0.00 0.51 0.51 33 1064.8
20260906135017 8 78 12.9 14.5 0.00 0.51 0.51 33 1064.1
20260906134017 7 74 12.9 16.1 0.00 0.51 0.51 32 1063.5
20260906133037 7 71 12.9 16.1 0.00 0.51 0.51 32 1062.9
20260906132037 6 68 12.9 16.1 0.00 0.51 0.51 31 1062.2
20260906131017 21 180 1.6 6.4 0.00 0.00 0.00 44 1026.9
20260906130017 6 62 12.9 16.1 0.00 0.51 0.51 30 1061.0
20260906125017 5 59 12.9 16.1 0.00 0.51 0.51 30 1060.5
20260906124017 5 56 12.9 16.1 0.00 0.51 0.51 29 1059.9
20260906123516 21 180 1.6 6.4 0.00 0.00 0.00 43 1027.2
20260906123037 4 53 14.5 16.1 0.00 0.51 0.51 29 1059.3
20260906122521 20 0.0 4.8 0.00 0.00 0.00 41 1027.2
20260906122037 3 51 14.5 16.1 0.00 0.51 0.51 28 1058.8
20260906121516 20 0.0 4.8 0.00 0.00 0.00 45 1027.3
20260906121017 3 48 14.5 16.1 0.00 0.51 0.51 28 1058.3
20260906120516 20 270 3.2 11.3 0.00 0.00 0.00 45 1027.5
20260906120037 3 45 14.5 17.7 0.00 0.51 0.51 28 1057.7
20260906115516 20 293 3.2 9.7 0.00 0.00 0.00 45 1027.5
20260906115037 2 43 14.5 17.7 0.00 0.51 0.51 27 1057.2
20260906114516 20 0.0 1.6 0.00 0.00 0.00 47 1027.6
20260906114017 2 40 14.5 17.7 0.00 0.51 0.51 27 1056.7
20260906113017 2 38 14.5 17.7 0.00 0.51 0.51 26 1056.3
20260906113015 19 293 1.6 6.4 0.00 0.00 0.00 47 1027.4
20260906112017 1 35 14.5 17.7 0.00 0.51 0.51 26 1055.8
20260906112015 19 293 1.6 4.8 0.00 0.00 0.00 47 1027.5
20260906111017 19 0.0 3.2 0.00 0.00 0.00 48 1027.6
20260906110018 17 90 1.6 4.8 0.00 0.00 0.00 51 1027.3
20260906105018 18 0.0 3.2 0.00 0.00 0.00 53 1027.6
20260906104037 0 27 14.5 17.7 0.00 0.51 0.51 24 1054.0
20260906104018 17 0.0 3.2 0.00 0.00 0.00 53 1027.8
20260906103017 0 25 14.5 17.7 0.00 0.51 0.51 24 1053.6
20260906102017 17 270 1.6 6.4 0.00 0.00 0.00 58 1028.0
20260906101018 17 0.0 6.4 0.00 0.00 0.00 60 1028.0
20260906100018 17 0.0 3.2 0.00 0.00 0.00 61 1028.0
20260906095018 17 0.0 3.2 0.00 0.00 0.00 60 1028.2
20260906094058 17 248 1.6 4.8 0.00 0.00 0.00 62 1028.4
20260906093037 0 14 16.1 19.3 0.00 0.51 0.51 22 1051.6
20260906093018 17 248 3.2 6.4 0.00 0.00 0.00 61 1028.4
20260906092017 0 13 16.1 19.3 0.00 0.51 0.51 22 1051.3
20260906091037 16 0.0 1.6 0.00 0.00 0.00 68 1028.2
20260906090017 16 293 1.6 6.4 0.00 0.00 0.00 68 1028.3
20260906085037 -1 9 16.1 19.3 0.00 0.51 0.51 21 1050.5
20260906084017 16 293 1.6 4.8 0.00 0.00 0.00 70 1028.3
20260906083017 -1 6 16.1 19.3 0.00 0.51 0.51 21 1050.0
20260906082017 16 113 1.6 9.7 0.00 0.00 0.00 71 1028.2
20260906081037 -1 4 16.1 19.3 0.00 0.51 0.51 21 1049.7
20260906080017 -1 4 16.1 19.3 0.00 0.51 0.51 21 1049.5
20260906075017 14 0.0 3.2 0.00 0.00 0.00 83 1027.9
20260906074057 13 270 3.2 6.4 0.00 0.00 0.00 85 1028.1
20260906073017 0 2 16.1 19.3 0.00 0.51 0.51 20 1049.1
20260906072017 12 0.0 0.0 0.00 0.00 0.00 91 1027.7
20260906071017 12 0.0 0.0 0.00 0.00 0.00 92 1027.6
20260906070017 11 0.0 0.0 0.00 0.00 0.00 93 1027.6
20260906065017 10 0.0 0.0 0.00 0.00 0.00 93 1027.4
20260906064017 9 0.0 0.0 0.00 0.00 0.00 93 1027.3
20260906063017 8 0.0 0.0 0.00 0.00 0.00 92 1027.1
20260906062017 0 0 16.1 19.3 0.00 0.51 0.51 20 1048.8
20260906061017 7 0.0 0.0 0.00 0.00 0.00 92 1026.8
20260906060017 1 0 16.1 19.3 0.00 0.51 0.51 20 1048.8
20260906055017 6 0.0 0.0 0.00 0.00 0.00 92 1026.9
20260906054017 6 0.0 0.0 0.00 0.00 0.00 91 1026.7
20260906053057 2 1 16.1 19.3 0.00 0.51 0.51 20 1049.1
20260906052019 6 0.0 0.0 0.00 0.00 0.00 91 1026.6
20260906052017 2 2 16.1 19.3 0.00 0.51 0.51 20 1049.2
20260906051017 6 0.0 1.6 0.00 0.00 0.00 91 1026.5
20260906050037 6 0.0 0.0 0.00 0.00 0.00 91 1026.6
20260906045017 6 0.0 0.0 0.00 0.00 0.00 91 1026.3
20260906044017 6 0.0 0.0 0.00 0.00 0.00 91 1026.4
20260906043017 6 0.0 0.0 0.00 0.00 0.00 91 1026.6
20260906042017 6 0.0 0.0 0.00 0.00 0.00 91 1026.4
20260906041017 5 8 16.1 19.3 0.00 0.51 0.51 21 1050.4
20260906040037 6 0.0 0.0 0.00 0.00 0.00 91 1026.4
20260906035017 6 0.0 0.0 0.00 0.00 0.00 90 1026.4
20260906034017 6 12 16.1 19.3 0.00 0.51 0.51 22 1051.1
20260906033017 7 0.0 0.0 0.00 0.00 0.00 90 1026.5
20260906032017 7 15 16.1 19.3 0.00 0.51 0.51 22 1051.7
20260906031037 7 0.0 1.6 0.00 0.00 0.00 90 1026.4
20260906030017 7 0.0 0.0 0.00 0.00 0.00 90 1026.2
20260906025016 8 20 14.5 17.7 0.00 0.51 0.51 23 1052.7
20260906024017 9 22 14.5 17.7 0.00 0.51 0.51 24 1053.1
20260906023036 7 0.0 0.0 0.00 0.08 0.00 89 1026.4
20260906022016 7 0.0 0.0 0.00 0.15 0.00 90 1026.2
20260906021017 7 0.0 0.0 0.00 0.18 0.00 89 1026.0
20260906020016 7 0.0 0.0 0.00 0.23 0.00 89 1026.1
20260906015037 7 0.0 0.0 0.00 0.23 0.00 89 1026.0
20260906014037 12 34 14.5 17.7 0.05 0.51 0.51 26 1055.6
20260906013037 7 0.0 0.0 0.00 0.23 0.00 88 1025.8
20260906012037 13 39 14.5 17.7 0.10 0.51 0.51 27 1056.5
20260906012016 7 0.0 0.0 0.00 0.23 0.00 88 1025.7
20260906011016 13 42 14.5 17.7 0.13 0.51 0.51 27 1057.0
20260906010018 8 0.0 0.0 0.00 0.23 0.00 87 1025.6
20260906005017 14 47 14.5 16.1 0.15 0.51 0.48 28 1058.0
20260906004017 15 49 14.5 16.1 0.15 0.51 0.46 28 1058.5
20260906003016 8 0.0 0.0 0.00 0.23 0.00 87 1025.5
20260906002017 16 55 12.9 16.1 0.18 0.51 0.41 29 1059.6
20260906001017 16 58 12.9 16.1 0.18 0.51 0.38 30 1060.2
20260906000037 16 61 12.9 16.1 0.18 0.51 0.36 30 1060.8
20260905235016 9 0.0 0.0 0.00 0.23 0.00 86 1025.2
20260905234018 17 67 12.9 16.1 0.18 0.51 0.30 31 1062.0
20260905234016 9 0.0 0.0 0.00 0.23 0.00 85 1025.1
20260905233017 17 70 12.9 16.1 0.15 0.51 0.25 32 1062.6
20260905232017 18 73 12.9 16.1 0.15 0.51 0.23 32 1063.2
20260905231017 18 76 12.9 14.5 0.15 0.51 0.20 33 1063.8
20260905230017 18 79 12.9 14.5 0.18 0.51 0.18 33 1064.5
20260905225017 18 83 12.9 14.5 0.15 0.51 0.15 34 1065.1